Home   Weather   Alofi   Past weeks

Flag for Niue Past Weather in Alofi, Niue — Yesterday and Last 2 Weeks

Now
75 °F

Partly cloudy.


Feels Like: 74 °F
Forecast: 74 / 81 °F
Wind: 2 mph from Southeast

Location: Alofi / Niue

Current Time: Dec 9, 2016 at 4:30:28 am

Latest Report: Dec 9, 2016 at 4:00 am


Visibility: N/A

Pressure: 29.83 "Hg

Humidity: 94%

Dew Point: 73 °F

Location of AlofiLocation

Past Weather in Alofi — Graph

°F

Alofi Temperature Yesterday

Maximum temperature yesterday: 84 °F (at 11:00 am)
Minimum temperature yesterday: 73 °F (at 5:00 am)
Average temperature yesterday: 79 °F

High & Low Weather Summary for the Past Weeks

 TemperatureHumidityPressure
High88 °F (Dec 2, 1:00 pm)100% (Nov 24, 5:00 am)29.89 "Hg (Nov 24, 5:00 am)
Low68 °F (Nov 30, 11:00 am)66% (Nov 25, 12:00 pm)29.71 "Hg (Dec 2, 1:00 pm)
Average80 °F86%29.81 "Hg
* Reported Nov 24 3:00 am — Dec 9 3:00 am, Alofi, Weather by CustomWeather, © 2016

Note: Actual official high and low records may vary slightly from our data, if they occured in-between our weather recording intervals... More about our weather records

Advertising

Alofi Weather History for the Previous 24 Hours

Scroll right to see more
 ConditionsComfort  
Time TempWeatherWind HumidityBarometerVisibility
3:00 am
Fri, Dec 9
73 °FPartly cloudy.No wind100%29.83 "HgN/A
2:00 am75 °FPartly cloudy.No wind94%29.83 "HgN/A
1:00 am75 °FPartly cloudy.2 mph94%29.86 "HgN/A
12:00 am75 °FMild.N/A94%29.86 "HgN/A
11:00 pm
Thu, Dec 8
75 °FMild.N/A94%29.89 "HgN/A
10:00 pm75 °FMild.N/A94%29.89 "HgN/A
9:00 pm77 °FWarm.N/A89%29.89 "HgN/A
8:00 pm77 °FWarm.N/A89%29.89 "HgN/A
7:00 pm79 °FWarm.N/A84%29.86 "HgN/A
6:00 pm81 °FWarm.N/A79%29.86 "HgN/A
5:00 pm81 °FWarm.N/A84%29.83 "HgN/A
4:00 pm81 °FBroken clouds.9 mph84%29.83 "HgN/A
3:00 pm84 °FBroken clouds.9 mph74%29.83 "HgN/A
2:00 pm84 °FBroken clouds.13 mph79%29.83 "HgN/A
1:00 pm82 °FBroken clouds.6 mph84%29.83 "HgN/A
12:00 pm84 °FBroken clouds.13 mph79%29.86 "HgN/A
11:00 am84 °FBroken clouds.5 mph79%29.89 "HgN/A
10:00 am79 °FSprinkles. Broken clouds.2 mph94%N/AN/A
9:00 am79 °FLots of rain. Broken clouds.8 mph89%N/AN/A
8:00 am79 °FWarm.N/A94%29.89 "HgN/A
7:00 am77 °FWarm.N/A94%29.89 "HgN/A
6:00 am73 °FMild.N/A94%29.86 "HgN/A
5:00 am73 °FMild.N/A94%29.83 "HgN/A
4:00 am75 °FMild.N/A94%29.80 "HgN/A
Weather by CustomWeather, © 2016

See weather overviewHow to use our weather pages